#timestamp,LO_Frequency,Hit,StdDev 
1571176815.0,286046997.0,N
1571176815.9,286046997.0,N
1571176835.8,286046995.1,N
1571176855.6,286046996.1,N
1571176875.4,286046995.8,N
1571176895.3,286046998.3,N
1571176915.1,286047000.4,N
1571176935.9,286047002.3,N
1571176955.7,286047002.0,N
1571176975.5,286047003.5,N
1571176995.4,286047001.8,N
1571177015.2,286047002.0,N
1571177035.0,286047004.2,N
1571177035.9,286047004.2,N
1571177055.8,286047003.2,N
1571177075.6,286047005.3,N
1571177095.5,286047007.3,N
1571177115.3,286047009.0,N
1571177135.1,286047006.3,N
1571177155.9,286047006.8,N
1571177175.7,286047008.7,N
1571177195.5,286047008.2,N
1571177215.4,286047010.6,N
1571177235.2,286047009.4,N
1571177255.1,286047012.2,N
1571177256.0,286047012.2,N
1571177275.8,286047011.3,N
1571177295.6,286047012.7,N
1571177315.5,286047013.2,N
1571177335.3,286047011.1,N
1571177355.2,286047012.4,N
1571177375.9,286047011.4,N
1571177395.7,286047011.8,N
1571177415.6,286047011.1,N
1571177435.4,286047011.0,N
1571177455.2,286047012.1,N
1571177475.1,286047012.1,Y
1571177476.0,286047012.1,P
1571177495.8,286047003.2,N
1571177515.7,286047004.0,N
1571177535.5,286047003.9,N
1571177555.3,286047003.0,N
1571177575.2,286047002.5,N
1571177595.0,286047002.5,N
1571177595.9,286047002.5,N
1571177615.8,286047001.6,N
1571177635.6,286047004.3,N
1571177655.4,286047006.0,N
1571177675.3,286047004.8,N
1571177695.1,286047004.7,N
1571177715.8,286047004.6,N
1571177735.7,286047007.3,N
1571177755.5,286047007.5,N
1571177775.4,286047007.1,N
1571177795.2,286047007.5,N
1571177815.0,286047007.6,N
1571177815.9,286047007.6,N
1571177835.8,286047003.1,N
1571177855.6,286047004.9,N
1571177875.4,286047004.8,N
1571177895.3,286047003.1,N
1571177915.1,286047003.3,N
1571177935.9,286047005.9,N
1571177955.7,286047005.2,N
1571177975.5,286047005.6,N
1571177995.4,286047003.6,N
1571178015.2,286047003.2,N
1571178035.0,286047004.0,N
1571178035.9,286047004.0,N
1571178055.8,286047003.3,N
1571178075.6,286047005.7,Y
1571178095.5,286047002.3,P
1571178115.3,286047000.2,N
1571178135.1,286047000.4,N
1571178155.9,286047001.2,N
1571178175.7,286046999.3,N
1571178195.5,286046999.6,N
1571178215.4,286046997.0,N
1571178235.2,286046999.1,N
1571178255.1,286046999.1,N
1571178256.0,286046999.1,N
1571178275.8,286047001.0,N
1571178295.6,286046999.6,N
1571178315.5,286046999.5,N
1571178335.3,286046998.0,N
1571178355.1,286046997.3,N
1571178375.9,286046996.1,N
1571178395.7,286046993.8,Y
1571178415.6,286046993.9,P
1571178435.4,286046994.0,N
1571178455.2,286046994.0,N
1571178475.1,286046992.0,Y
1571178476.0,286046992.0,P
1571178495.8,286046999.0,N
1571178515.7,286047000.8,N
1571178535.5,286046998.8,N
1571178555.3,286046999.3,N
1571178575.2,286046998.0,N
1571178595.0,286046995.3,N
1571178595.9,286046995.3,N
1571178615.8,286046993.3,N
1571178635.6,286046995.9,N
1571178655.4,286046995.9,N
1571178675.3,286046997.6,N
1571178695.1,286046993.3,N
1571178715.8,286046994.3,N
1571178735.7,286046993.1,N
1571178755.5,286046994.7,N
1571178775.4,286046994.4,N
1571178795.2,286046995.9,N
1571178815.0,286046996.1,N
1571178815.9,286046996.1,N
1571178835.8,286046995.9,N
1571178855.6,286046996.3,N
1571178875.4,286046996.4,N
1571178895.3,286046995.3,N
1571178915.1,286046997.5,N
1571178935.9,286046993.3,Y
1571178955.7,286046997.3,P
1571178975.5,286046994.9,P
1571178995.4,286046996.6,P
1571179015.2,286047001.1,N
1571179035.0,286047001.0,N
1571179035.9,286047001.0,N
1571179055.8,286047000.7,N
1571179075.6,286046999.9,N
1571179095.5,286046999.7,N
1571179115.3,286046999.9,N
1571179135.1,286047000.4,N
1571179155.9,286047001.9,N
1571179175.7,286047001.8,N
1571179195.5,286047003.5,N
1571179215.4,286047003.4,N
1571179235.2,286047003.1,N
1571179255.1,286047003.5,N
1571179256.0,286047003.5,N
1571179275.8,286047001.8,N
1571179295.6,286047002.6,N
1571179315.5,286047001.1,N
1571179335.3,286046998.8,N
1571179355.2,286047000.0,N
1571179375.9,286047002.1,N
1571179395.7,286047001.6,N
1571179415.6,286047000.5,N
1571179435.4,286046998.5,N
1571179455.2,286046998.2,N
1571179475.1,286047002.3,N
1571179476.0,286047002.3,N
1571179495.8,286047001.8,N
1571179515.7,286047000.6,N
1571179535.5,286047002.7,N
1571179555.3,286046999.9,N
1571179575.2,286047000.9,N
1571179595.0,286047001.2,N
1571179595.9,286047001.2,N
1571179615.7,286047000.0,N
1571179635.6,286046998.7,N
1571179655.4,286047000.7,N
1571179675.3,286047000.2,N
1571179695.1,286046998.6,N
1571179696.0,286046998.6,N
1571179715.8,286046996.8,N
1571179735.7,286046998.4,N
1571179755.5,286047000.9,N
1571179775.3,286047001.2,N
1571179795.2,286047000.8,N
1571179815.0,286046999.3,N
1571179815.9,286046999.3,N
1571179835.8,286046996.5,N
1571179855.6,286046996.7,N
1571179875.4,286046997.6,N
1571179895.3,286046998.0,N
1571179915.1,286046999.6,N
1571179935.9,286046998.7,N
1571179955.7,286046999.6,N
1571179975.5,286047001.0,N
1571179995.4,286046996.6,N
1571180015.2,286046998.2,N
1571180035.0,286047002.6,N
1571180035.9,286047002.6,N
1571180055.8,286047000.8,N
1571180075.6,286046998.4,N
1571180095.5,286046996.8,N
1571180115.3,286046997.1,N
1571180135.1,286046997.1,N
1571180155.9,286046997.0,N
1571180175.7,286046998.8,N
1571180195.5,286046997.4,N
1571180215.4,286046999.3,N
1571180235.2,286046999.2,N
1571180255.1,286047001.2,N
1571180256.0,286047001.2,N
1571180275.8,286046998.9,N
1571180295.6,286046997.4,N
1571180315.5,286046997.3,N
1571180335.3,286046999.0,N
1571180355.1,286046996.5,N
1571180375.9,286047000.6,N
1571180395.7,286047000.2,N
